TimeEDT,TemperatureF,Dew PointF,Humidity,Sea Level PressureIn,VisibilityMPH,Wind Direction,Wind SpeedMPH,Gust SpeedMPH,PrecipitationIn,Events,Conditions,WindDirDegrees,DateUTC
12:58 AM,81.0,75.0,82,30.00,10.0,ESE,9.2,-,N/A,,Partly Cloudy,110,2013-08-07 04:58:00
1:44 AM,80.6,75.2,84,29.98,10.0,ESE,10.4,-,N/A,,Mostly Cloudy,110,2013-08-07 05:44:00
1:58 AM,81.0,75.9,85,29.98,10.0,ESE,10.4,-,N/A,,Mostly Cloudy,110,2013-08-07 05:58:00
2:58 AM,80.1,75.9,87,29.96,10.0,SE,3.5,-,N/A,,Overcast,140,2013-08-07 06:58:00
3:03 AM,80.6,75.2,84,29.96,10.0,ESE,3.5,-,N/A,,Overcast,120,2013-08-07 07:03:00
3:24 AM,80.6,77.0,89,29.97,10.0,ESE,8.1,-,N/A,,Overcast,110,2013-08-07 07:24:00
3:58 AM,81.0,77.0,88,29.96,10.0,East,9.2,-,N/A,,Overcast,100,2013-08-07 07:58:00
4:08 AM,80.6,77.0,89,29.96,10.0,East,8.1,-,N/A,,Overcast,100,2013-08-07 08:08:00
4:36 AM,80.6,77.0,89,29.96,10.0,East,8.1,-,N/A,,Mostly Cloudy,100,2013-08-07 08:36:00
4:58 AM,81.0,77.0,88,29.96,10.0,ESE,9.2,-,N/A,,Mostly Cloudy,110,2013-08-07 08:58:00
5:37 AM,80.6,77.0,89,29.97,10.0,ESE,9.2,-,N/A,,Mostly Cloudy,110,2013-08-07 09:37:00
5:58 AM,81.0,75.9,85,29.97,10.0,East,8.1,-,N/A,,Overcast,100,2013-08-07 09:58:00
6:22 AM,80.6,77.0,89,29.98,10.0,East,6.9,-,N/A,,Scattered Clouds,90,2013-08-07 10:22:00
6:45 AM,80.6,77.0,89,29.98,10.0,East,8.1,-,N/A,,Mostly Cloudy,80,2013-08-07 10:45:00
6:52 AM,80.6,77.0,89,29.98,5.0,East,8.1,-,N/A,,Mostly Cloudy,80,2013-08-07 10:52:00
6:58 AM,81.0,77.0,88,29.99,5.0,East,8.1,-,N/A,,Mostly Cloudy,90,2013-08-07 10:58:00
7:58 AM,80.1,75.9,87,30.00,4.0,East,11.5,-,0.07,Rain,Light Rain,100,2013-08-07 11:58:00
8:39 AM,80.6,75.2,84,30.01,10.0,ESE,10.4,-,0.00,,Mostly Cloudy,120,2013-08-07 12:39:00
8:58 AM,80.1,77.0,90,30.01,10.0,East,10.4,-,0.00,,Mostly Cloudy,100,2013-08-07 12:58:00
9:58 AM,79.0,75.0,88,30.02,6.0,ENE,9.2,-,0.01,,Mostly Cloudy,70,2013-08-07 13:58:00
10:58 AM,81.0,75.9,85,30.03,10.0,East,8.1,-,N/A,,Mostly Cloudy,100,2013-08-07 14:58:00
11:58 AM,82.0,75.0,79,30.03,10.0,ENE,9.2,-,N/A,,Overcast,60,2013-08-07 15:58:00
12:58 PM,84.0,75.0,74,30.02,10.0,East,10.4,-,N/A,,Mostly Cloudy,80,2013-08-07 16:58:00
1:58 PM,84.0,75.0,74,30.03,10.0,ENE,11.5,-,N/A,,Overcast,70,2013-08-07 17:58:00
2:58 PM,84.9,75.0,72,30.01,10.0,East,11.5,-,N/A,,Scattered Clouds,90,2013-08-07 18:58:00
3:58 PM,84.9,75.9,74,30.00,10.0,East,12.7,-,N/A,,Clear,90,2013-08-07 19:58:00
4:58 PM,84.0,75.9,76,29.99,10.0,East,12.7,-,N/A,,Clear,80,2013-08-07 20:58:00
5:58 PM,84.9,75.0,72,29.97,10.0,East,12.7,-,N/A,,Clear,80,2013-08-07 21:58:00
6:58 PM,82.9,75.9,79,29.99,10.0,East,11.5,-,N/A,,Clear,80,2013-08-07 22:58:00
7:58 PM,82.0,77.0,85,30.00,10.0,East,10.4,-,N/A,,Clear,90,2013-08-07 23:58:00
8:58 PM,82.0,75.9,82,29.99,10.0,East,10.4,-,N/A,,Clear,90,2013-08-08 00:58:00
9:58 PM,82.0,75.9,82,30.00,10.0,East,10.4,-,N/A,,Clear,90,2013-08-08 01:58:00
10:58 PM,82.0,77.0,85,30.02,10.0,East,9.2,-,N/A,,Clear,100,2013-08-08 02:58:00
11:58 PM,81.0,78.1,91,30.01,10.0,East,9.2,-,N/A,,Partly Cloudy,80,2013-08-08 03:58:00